Regional Weather Roundup
Issued by NWS

Home | Current Version | Previous Version | Graphics & Text | Print | Product List | Glossary On
Versions: 1 2 3 4 5 6 7 8 9 10 11 12 13 14 15 16 17 18 19 20 21 22 23 24 25 26 27 28 29 30 31 32 33 34 35 36 37 38 39 40 41 42 43 44 45 46 47 48 49 50
835
ASUS43 KLOT 070308
RWRIL

ILLINOIS REGIONAL WEATHER ROUNDUP
NATIONAL WEATHER SERVICE CHICAGO/ROMEOVILLE IL
900 PM CST SAT FEB 06 2016

NOTE: "FAIR" INDICATES FEW OR NO CLOUDS BELOW 12,000 FEET WITH NO
SIGNIFICANT WEATHER AND/OR OBSTRUCTIONS TO VISIBILITY.

* THESE STATIONS ARE NOT UNDER NWS QUALITY CONTROL. THEY ALSO MAY NOT
  REPORT WEATHER SUCH AS PRECIPITATION OR FOG.

ILZ001-002-007-009-015-016-024-070400-
NORTHWEST ILLINOIS

CITY           SKY/WX    TMP DP  RH WIND       PRES   REMARKS
MOLINE         CLEAR     29  25  85 S3        30.07F
STERLING*      CLEAR     30  27  86 SE6       30.06F WCI  24
SAVANNA*       CLEAR     28  27  95 S7        30.07F WCI  21
$$

ILZ003-004-008-010-011-017-018-070400-
NORTH CENTRAL ILLINOIS

CITY           SKY/WX    TMP DP  RH WIND       PRES   REMARKS
ROCKFORD       PTCLDY    29  26  89 SE3       30.09F
FREEPORT*      PTCLDY    28  27  95 S5        30.08F FOG     WCI  23
ROCHELLE*      CLEAR     30  29  96 SE7       30.09F FOG     WCI  23
DE KALB*       CLEAR     29  26  91 S3        30.09F
PERU*          CLEAR    -17 -23  73 SW7       30.11F WCI -34
$$

ILZ005-006-012>014-019>023-070400-
NORTHEAST ILLINOIS

CITY           SKY/WX    TMP DP  RH WIND       PRES   REMARKS
CHICAGO-OHARE  CLEAR     33  27  78 S6        30.10F WCI  28
CHICAGO-MIDWAY CLEAR     36  27  69 S7G17     30.11F WCI  30
AURORA         CLEAR     34  27  75 S7        30.10F WCI  28
LANSING*       CLEAR     30  27  89 S5        30.13F WCI  25
JOLIET*        CLEAR     30  29  94 S3        30.11F
WAUKEGAN       CLEAR     30  27  88 SW5       30.08F WCI  25
DUPAGE AIRPORT CLEAR     30  25  81 S3        30.09F
KANKAKEE*      CLEAR     32  28  86 S6        30.13F WCI  26
WHEELING       CLEAR     31  27  85 S3        30.11F
MORRIS*          N/A     32  28  86 SW6       30.09F WCI  27
ROMEOVILLE*    CLEAR     32  28  84 S7        30.11F WCI  25
NORTHERLY ISL    N/A     38  28  68 S8          N/A  WCI  32
$$

LMZ740>746-070400-
SOUTHERN LAKE MICHIGAN

STATION/POSITION SKY/WX   TEMP    WIND        PRES    VSBY  WAVE
                          AIR SEA DIR/SP/G                  HT/PER
                          (F)     (DEG/KT/KT) (MB)    (MI)  (FT/S)
HARRISON CRIB              38     180/ 12/ 13   N/A
BURNHAM HARBOR             38     190/  6/ 10   N/A
CALUMET HARBOR             36     170/  6/  9 1019.5F
BURNS HARBOR               36     180/  9/ 11 1021.0F
MICHIGAN CITY              37     150/ 12/ 14   N/A
$$

ILZ025>027-034>036-040-047-049-050-058-095>099-070400-
WEST-CENTRAL ILLINOIS

CITY           SKY/WX    TMP DP  RH WIND       PRES   REMARKS
QUINCY         CLEAR     35  25  66 S6        30.13F WCI  30
GALESBURG*     CLEAR     32  28  85 S5        30.11F WCI  28
MACOMB*        CLEAR     34  28  79 SW6       30.14F WCI  29
JACKSONVILLE*  CLEAR     40  30  67 SW5       30.15S
PITTSFIELD*    CLEAR     36  28  72 CALM      30.16S
$$

ILZ028>032-037-038-041>044-048-051>054-059>061-070400-
CENTRAL ILLINOIS

CITY           SKY/WX    TMP DP  RH WIND       PRES   REMARKS
PONTIAC        CLEAR     35  32  88 S3        30.13F
BLOOMINGTON    CLEAR     33  32  96 SW6       30.14F WCI  27
DECATUR        CLEAR     35  28  75 SW8       30.16F WCI  29
PEORIA         CLEAR     34  25  69 S3        30.13F
LACON*         PTCLDY    31  24  74 S5        30.11F WCI  26
LINCOLN*       CLEAR     36  31  85 CALM      30.14F
SPRINGFIELD    CLEAR     39  30  70 SW5       30.15F
TAYLORVILLE    CLEAR     36  30  80 S6        30.16S WCI  31
$$

ILZ033-039-045-046-055>057-062-063-070400-
EAST-CENTRAL ILLINOIS

CITY           SKY/WX    TMP DP  RH WIND       PRES   REMARKS
CHAMPAIGN      CLEAR     34  29  82 S9        30.15F WCI  27
RANTOUL*       CLEAR     35  32  87 S3        30.15F
MATTOON        CLEAR     41  27  57 S7        30.17S
PARIS*         CLEAR     33  29  83 S10       30.18F WCI  25
$$

ILZ079-100>102-070400-
SOUTHWEST ILLINOIS

CITY           SKY/WX    TMP DP  RH WIND       PRES   REMARKS
BELLEVILLE     CLEAR     37  27  66 CALM      30.18F
CAHOKIA*       CLEAR     39  26  59 SW3       30.18F
SPARTA*        CLEAR     44  22  43 S9        30.22S
$$

ILZ064>066-069>071-074>076-080>082-084>086-088>090-092>094-070400-
SOUTH-CENTRAL ILLINOIS

CITY           SKY/WX    TMP DP  RH WIND       PRES   REMARKS
CARBONDALE     CLEAR     37  22  54 S9        30.24F WCI  30
CAIRO*         CLEAR     42  27  55 SW7       30.28S
EFFINGHAM*     CLEAR     43  26  51 S5        30.20F
MARION         CLEAR     39  25  56 SW8       30.25F WCI  34
MT. VERNON     CLEAR     39  23  52 S7        30.22F WCI  34
CENTRALIA*     CLEAR     42  28  57 S12       30.20S
SALEM*         CLEAR     44  24  44 S8        30.20S
METROPOLIS*    CLEAR     42  25  51 SW5       30.28S
$$

ILZ067-068-072-073-078-083-087-091-070400-
SOUTHEAST ILLINOIS

CITY           SKY/WX    TMP DP  RH WIND       PRES   REMARKS
LAWRENCEVILLE  CLEAR     34  26  72 S9        30.22F WCI  27
FLORA*         CLEAR     39  26  59 S9        30.21F WCI  33
FAIRFIELD*     CLEAR     41  25  53 S7        30.22S
HARRISBURG*    CLEAR     41  26  56 CALM      30.26S
ROBINSON*      CLEAR     33  24  70 S7        30.22F WCI  27
CARMI*         CLEAR     42  27  54 SW9       30.24S
$$

ABBREVIATIONS USED IN REMARKS
   TC - TEMPERATURE IN CELSIUS
  WCI - WIND CHILL INDEX
   HX - HEAT INDEX
  VSB - VISIBILITY
$$





USA.gov is the U.S. government's official web portal to all federal, state and local government web resources and services.